Theta_e
353 352 354 354 355 354 354 354 354 353 353 352 352 350 348 346 347 348 342 348 351 352 354 352 352 352 351 353 351 348 352 355 355 353 353 351 351 350 349 348 346 344 342
356 354 353 354 355 355 355 355 354 354 353 353 352 350 349 348 347 346 346 345 347 350 350 353 352 352 350 352 352 351 353 356 355 354 354 358 352 349 347 346 343 338 336
357 356 354 354 354 355 356 355 355 354 353 353 352 351 350 349 348 348 347 346 347 348 348 349 349 351 349 347 351 349 353 357 355 356 355 356 359 351 348 343 339 336 336
353 356 355 355 354 355 356 355 356 356 354 353 352 351 350 350 349 347 346 346 346 346 346 345 346 348 347 348 346 345 352 355 356 355 354 355 354 356 351 344 339 337 336
352 353 354 354 354 355 356 356 357 356 355 354 352 352 351 349 349 348 348 348 347 344 343 341 348 348 347 346 348 345 351 358 357 354 352 354 352 352 349 350 343 338 336
351 352 351 353 355 355 356 357 358 357 356 355 354 353 352 350 349 350 350 349 345 346 338 342 349 350 348 346 346 346 353 358 357 355 353 351 349 350 349 350 346 341 337
350 350 353 353 356 355 356 357 358 358 357 356 355 353 353 350 349 350 350 350 346 344 348 345 342 345 348 346 347 351 355 358 356 354 350 350 350 349 350 349 347 345 338
350 351 352 353 355 356 357 357 357 358 358 357 356 355 353 353 351 351 351 350 349 348 349 350 348 347 347 348 353 351 356 355 354 352 350 348 349 349 347 343 348 348 345
351 352 352 353 355 356 357 358 357 358 357 356 356 355 354 354 352 352 352 351 351 350 350 350 352 352 353 353 355 356 356 356 354 350 348 348 348 348 346 344 342 345 351
352 351 352 352 354 356 357 358 358 358 357 356 355 354 353 353 353 353 352 352 350 350 349 351 352 352 351 354 355 355 356 355 351 344 347 347 347 347 346 342 340 341 344
352 352 352 351 352 355 355 357 358 358 357 356 355 354 352 352 353 352 352 352 351 351 351 352 353 354 354 353 356 355 354 351 347 344 344 346 348 344 343 339 339 340 340
349 351 351 352 351 353 355 356 357 357 357 356 355 354 352 351 352 352 352 353 348 351 352 352 353 354 355 355 355 354 350 348 345 342 342 342 343 344 342 338 339 340 342
349 350 350 352 351 353 354 355 356 356 356 356 354 354 352 351 351 352 352 351 349 351 351 354 353 353 355 355 354 350 348 345 341 340 341 339 340 339 336 333 335 340 339
352 351 350 352 352 353 354 355 355 355 355 355 355 353 351 351 350 351 350 352 351 351 351 352 352 346 354 353 350 347 345 341 338 337 338 337 337 337 338 338 339 339 338
352 352 352 352 354 354 355 356 355 356 355 355 355 352 351 351 351 351 351 353 352 351 351 352 352 353 350 349 347 345 342 338 335 335 335 334 332 333 338 338 339 338 329
350 353 354 355 356 355 356 356 356 355 354 355 354 353 353 352 351 352 352 352 352 349 351 351 352 348 346 343 343 341 338 334 333 332 332 331 326 325 332 332 334 334 330
350 351 354 355 355 355 356 357 356 356 355 356 354 354 354 352 352 351 351 352 352 352 353 352 352 349 344 342 339 336 334 332 331 330 330 327 329 330 329 328 328 327 328
350 352 353 354 355 355 356 356 357 357 356 357 356 355 353 352 352 351 352 352 351 352 351 352 349 348 345 341 337 332 333 330 329 327 326 324 329 332 331 330 331 329 327
350 351 351 353 355 355 356 357 357 357 357 357 356 355 353 352 352 352 352 351 352 352 351 350 349 344 344 338 336 331 329 325 326 324 324 323 323 321 327 330 329 327 323
346 348 347 351 354 356 356 357 357 358 358 357 355 355 352 351 351 352 352 351 352 353 350 351 347 348 344 337 334 331 328 325 324 325 326 324 325 313 312 322 323 323 320
350 350 350 352 354 355 355 357 358 358 358 357 357 356 352 352 351 352 351 351 352 347 352 348 350 349 347 338 334 331 329 324 322 324 328 325 323 319 316 321 320 320 320
353 352 352 352 354 355 356 358 359 359 359 358 357 355 352 351 352 351 352 353 352 350 352 353 352 349 346 340 334 332 330 327 324 325 328 330 326 324 320 319 322 319 318
353 353 353 354 355 356 356 359 360 360 359 358 357 356 353 351 351 352 353 353 352 350 352 352 351 349 347 344 337 333 332 330 331 327 327 329 328 326 325 321 321 319 317
350 353 354 355 357 357 357 358 359 360 359 358 357 357 355 351 351 352 352 351 351 350 351 351 352 351 348 346 341 335 333 331 332 332 331 329 327 326 326 325 320 321 320
350 351 353 355 357 357 358 358 359 360 359 358 357 356 355 351 350 349 349 350 349 348 348 349 352 352 351 349 345 339 337 335 333 333 331 331 328 326 325 321 320 320 321
351 353 352 355 356 357 358 358 358 359 358 357 356 354 354 353 351 350 349 349 349 347 346 348 351 353 352 350 345 340 337 335 335 333 331 331 329 327 325 322 320 320 321
Wind_Speed
19 21 21 20 20 21 21 22 23 22 22 20 20 19 17 15 15 13 14 10 8 6 5 5 3 2 2 4 7 8 5 2 1 10 11 11 12 14 13 13 14 15 15
19 22 24 23 22 23 23 22 22 22 23 21 20 19 18 18 18 15 13 14 12 10 7 5 4 4 4 3 5 6 5 1 0 3 7 3 6 12 11 12 13 13 15
22 19 21 25 26 24 24 24 24 23 24 21 19 17 14 15 16 16 14 14 13 14 11 8 7 5 4 4 3 5 7 2 0 1 4 1 3 11 9 11 12 12 13
21 21 24 27 30 27 25 24 24 24 23 23 20 21 20 20 19 19 16 13 13 14 13 10 9 9 7 5 5 5 6 3 2 1 0 2 2 2 3 6 9 10 11
22 22 25 31 28 26 25 24 23 23 21 22 20 21 20 18 15 17 15 16 13 15 15 13 10 11 11 8 8 6 6 5 4 2 2 0 3 4 9 6 9 10 9
19 21 27 27 24 25 25 25 25 25 24 23 23 21 19 18 16 15 17 17 18 14 18 16 12 11 11 11 10 7 6 5 3 2 2 3 3 4 3 8 11 10 9
15 18 19 22 25 28 28 26 26 26 25 24 23 22 21 19 19 17 16 16 18 17 15 16 16 14 14 12 9 7 6 4 4 3 2 3 4 1 2 13 12 8 10
12 16 19 23 26 30 27 26 26 26 26 24 23 22 21 20 20 18 16 17 15 16 12 10 9 11 12 10 9 8 6 6 5 4 2 3 4 5 4 2 15 8 9
11 15 18 22 24 25 27 27 25 25 26 25 22 21 20 20 18 17 16 15 15 12 11 10 9 10 11 10 9 8 6 7 6 4 3 3 4 5 4 4 6 4 6
11 13 16 21 24 25 25 25 25 26 24 23 22 21 20 20 19 16 15 16 15 13 11 10 10 11 10 9 10 7 6 7 4 3 4 3 5 5 4 3 4 6 3
12 13 13 20 23 23 24 24 24 24 24 23 21 20 20 20 19 18 17 17 15 14 12 11 10 10 11 9 9 6 8 7 4 3 4 4 4 5 4 3 5 6 7
11 12 14 18 22 23 24 25 25 25 24 23 22 21 19 19 19 20 18 16 18 15 13 12 11 9 8 9 8 9 9 7 5 5 6 5 6 5 4 5 4 5 5
10 13 14 14 20 23 24 24 24 24 23 21 20 20 19 19 20 20 20 18 18 16 14 12 11 9 8 9 9 10 8 7 6 6 7 7 5 4 3 5 8 8 8
9 11 13 14 18 21 22 22 22 23 22 22 21 20 20 20 19 20 20 19 18 18 16 14 11 11 9 10 11 9 8 7 7 7 7 6 5 5 5 6 8 9 10
10 10 12 14 18 20 22 23 23 23 23 22 22 20 18 17 16 16 17 18 18 17 16 14 12 11 12 11 11 10 8 8 8 7 7 6 8 9 8 7 8 11 10
12 11 12 15 18 22 22 23 23 25 23 23 21 18 17 17 17 16 16 16 14 15 14 14 14 15 10 14 14 11 9 9 9 9 8 7 7 7 10 7 11 9 8
11 13 14 15 20 23 24 23 23 24 23 22 20 19 19 19 18 17 17 17 16 15 14 15 15 13 12 12 13 12 9 10 9 9 9 9 7 7 8 10 9 9 9
10 12 13 18 22 24 24 24 24 24 24 23 22 20 21 21 19 18 18 17 15 13 14 14 13 13 11 14 16 14 10 9 10 10 9 7 9 8 9 10 9 7 5
9 12 17 19 22 26 26 25 25 25 24 22 22 23 22 21 21 20 20 18 16 14 14 13 12 15 11 18 17 14 10 11 11 11 9 9 9 12 13 9 10 8 5
8 13 15 19 24 26 27 28 27 27 26 25 25 23 23 22 22 22 21 17 15 14 13 12 14 12 13 20 19 16 12 13 13 11 10 13 10 12 12 9 10 9 9
5 9 13 18 22 25 27 27 26 28 27 25 25 24 24 25 23 20 20 17 16 16 13 13 15 14 15 20 22 21 13 14 14 13 13 12 14 13 12 12 10 9 11
3 9 13 18 22 26 27 26 27 26 26 26 26 24 25 24 23 23 21 19 17 18 16 16 14 14 16 19 25 24 19 15 14 14 13 13 15 15 14 13 12 13 12
4 7 10 15 19 25 28 27 26 28 28 26 26 25 25 25 25 24 22 20 19 18 18 17 17 16 17 17 22 26 25 19 14 12 12 13 13 16 16 16 16 15 15
5 7 10 12 16 22 25 22 21 24 26 26 26 25 26 26 26 24 23 23 23 21 19 19 20 18 18 19 19 26 28 26 21 17 13 12 14 16 17 17 20 18 19
10 6 8 10 13 15 16 18 20 24 25 24 24 25 24 27 27 27 26 26 25 26 23 20 19 19 21 23 24 26 26 27 25 22 18 17 18 18 20 20 19 21 22
14 9 6 4 7 13 13 14 18 21 24 25 25 27 27 26 26 26 25 25 25 27 27 23 21 20 19 18 25 28 28 26 25 25 23 23 22 22 22 22 23 23 23
Wind_Direction
193 192 191 190 188 189 188 193 196 199 197 199 201 203 205 213 220 223 222 221 222 217 223 230 234 276 330 355 352 0 21 19 124 105 97 93 94 87 86 83 80 78 75
199 198 193 194 196 193 193 191 194 197 199 204 210 212 213 218 228 230 226 224 224 225 230 245 252 267 293 323 341 358 343 309 158 233 156 155 94 80 82 86 83 82 77
195 195 198 193 195 197 197 193 194 195 197 204 206 206 214 222 223 225 227 225 221 228 231 239 254 259 279 298 316 335 335 315 269 263 279 240 120 125 84 90 90 84 82
207 193 196 200 202 197 198 197 194 196 199 197 201 201 208 215 224 226 225 224 219 224 232 233 248 250 254 274 287 312 321 308 311 285 299 315 134 146 126 92 99 94 86
207 201 195 207 201 191 194 198 196 196 200 199 203 204 216 222 226 224 221 217 217 223 233 236 239 242 243 250 266 291 300 287 286 250 166 203 166 150 146 146 140 113 98
210 210 205 202 190 195 188 194 196 196 197 200 204 208 213 216 215 214 216 220 219 229 239 236 232 240 242 239 254 267 270 265 262 241 239 217 231 165 170 124 144 133 114
210 199 206 192 191 193 194 192 194 198 198 202 204 206 211 214 218 221 217 220 217 223 226 232 241 239 232 230 244 246 250 243 239 204 232 224 227 252 219 142 149 143 137
193 194 192 194 193 196 194 194 195 198 198 200 206 207 209 215 217 221 220 222 217 217 218 218 221 216 214 224 229 223 227 212 201 199 232 231 219 210 198 231 142 173 154
191 185 186 189 189 190 194 194 196 200 199 199 200 207 208 213 217 220 220 214 214 212 209 211 205 209 210 209 216 223 208 193 198 212 205 211 197 204 205 227 212 185 166
183 192 186 189 190 192 192 194 197 200 200 199 199 203 208 211 213 212 215 214 215 210 206 212 207 209 207 209 222 214 193 180 202 201 182 199 193 186 202 219 213 211 105
187 187 194 188 191 191 189 194 197 200 199 199 199 201 207 209 212 214 214 216 214 203 207 206 203 202 207 201 209 198 179 173 180 169 158 178 193 182 181 197 189 172 188
195 196 191 193 188 189 191 191 197 200 201 197 196 199 203 207 209 212 212 212 209 201 203 196 195 192 196 196 197 192 177 168 174 168 155 165 171 165 176 200 183 185 175
203 193 195 193 195 190 191 189 193 199 197 192 194 195 198 203 211 212 211 206 207 202 203 200 205 197 187 191 189 183 168 164 167 167 171 175 167 167 183 204 179 168 162
192 214 202 196 193 189 189 191 192 193 193 192 193 194 199 204 210 210 208 205 205 204 203 203 205 202 192 182 186 180 168 153 162 172 171 173 167 164 169 157 159 152 148
201 195 198 187 187 189 187 188 187 189 189 191 192 192 198 203 205 206 203 202 205 205 198 198 192 186 179 180 186 177 166 163 171 170 168 167 172 167 165 146 151 149 150
213 211 197 186 185 187 189 187 186 185 188 187 190 187 192 193 197 195 197 199 199 191 188 195 187 179 177 196 183 170 164 160 180 173 165 175 172 173 171 149 153 150 154
214 201 200 196 186 185 185 184 186 183 182 183 183 185 187 189 191 191 193 193 193 181 185 185 177 179 182 190 183 171 170 173 179 177 169 175 175 154 160 171 174 171 168
231 205 195 194 189 184 185 175 179 179 179 181 183 185 185 185 187 188 187 185 187 181 183 178 177 176 184 188 184 174 169 180 171 171 172 172 161 162 153 152 154 152 165
234 211 196 191 181 184 178 173 173 176 179 180 180 179 183 181 184 186 186 185 185 180 186 184 185 183 190 186 187 175 176 174 172 164 170 167 164 166 154 157 150 151 159
233 212 206 188 185 183 173 171 175 179 181 179 186 183 178 181 186 187 184 186 188 187 185 191 192 190 190 195 192 181 188 179 175 174 180 171 178 163 161 163 161 168 170
240 212 192 186 183 179 177 175 179 186 183 179 182 179 177 177 182 187 183 187 188 188 191 192 190 194 195 198 196 193 193 184 185 185 189 196 192 180 174 165 171 182 178
222 205 177 172 177 180 182 182 187 184 178 178 180 177 177 181 180 184 187 192 190 189 194 196 197 198 199 203 202 202 193 193 192 198 200 203 207 197 193 186 195 194 190
258 222 181 175 180 187 193 191 186 178 177 179 184 180 180 184 181 186 190 191 193 196 200 197 202 203 202 207 215 208 204 201 198 206 214 205 216 209 209 208 211 205 209
275 238 209 192 193 196 203 208 189 182 181 183 186 186 182 184 183 191 194 196 195 203 199 199 209 206 202 205 205 207 209 211 210 214 216 212 212 216 211 221 217 214 221
312 303 248 210 202 201 206 209 192 187 186 185 193 191 190 189 191 199 202 205 205 200 205 211 212 206 207 213 205 197 201 206 210 207 211 214 215 213 215 218 217 217 221
351 337 297 252 215 184 190 211 209 198 195 188 195 199 194 192 198 200 207 213 218 219 209 209 212 215 220 212 212 210 204 206 205 202 212 219 219 220 219 219 221 221 221